Weather in Makoshyne

Ukraine / Chernihiv Region     51°27′59″N   32°20′01″E
temp.,
°C
wind,
m/s
gust,
m/s
humid.,
%
clouds,
%
prec.,
mm/h
press.,
hPa
HPBL,
m
20 april, tue
tue2000:00+6ne499367 0.1 1015289
03:00+4ne379625 0.1 1014167
06:00+4ne4896100 0.0 1013290
09:00+8ne468195 0.0 1012606
12:00+11ne5567100 0.4 10101110
15:00+9ne578068 1.0 1009718
18:00+8n5889100 0.1 1008493
21:00+7nnw4797100 1.4 1007296
21 april, wed
wed2100:00+7nnw5896100 2.4 1006427
03:00+6nnw3697100 3.9 1006422
06:00+6nnw2296100 1.9 1007208
09:00+5nw3493100 4.9 1009804
12:00+5w2593100 4.8 1011719
15:00+6wsw2388100 7.3 1012357
18:00+10wsw2572100 0.3 1012746
21:00+7s2280100 0.3 101323
22 april, thu
thu2200:00+6ssw348866 0.0 101458
03:00+5s3791100 0.0 1014116
06:00+5s4994100 0.0 1014176
09:00+9s5108498 0.1 1015382
12:00+14sw79655 0.2 10151292
15:00+16sw710586 1.3 10151678
18:00+14ssw486969 1.9 1014389
21:00+10s498671 2.4 1015142
23 april, fri
fri2300:00+10s4128275 0.1 1014255
03:00+9s5128697 0.1 1014320
06:00+8ssw379660 0.4 1014159
09:00+10w228799 0.6 1015505
12:00+9nw5586100 0.3 1015465
15:00+5nw5890100 0.7 1016514
18:00+4nw4792100 0.1 1016557
21:00+4w0194100 0.6 101629
24 april, sat
sat2400:00+4sw2694100 0.0 1016220
03:00+2w399323 0.1 1015204
06:00+1w310900 0.0 1015230
09:00+5w69735 0.0 1016739
12:00+8w795395 0.3 10162044
15:00+7w695691 0.4 10161709
18:00+7w6860100 0.3 10161406
21:00+3wsw387973 0.4 1016234